Wetterdaten: Mittwoch, 22.10.2014
Datum Zeit Temperatur Luftfeuchte Luftdruck Regen Wind Richtung Richtung Taupunkt Windchill Windben
22.10.2014 00:00 4,1 C 91 % 1015,4 hPa 0,0 l/m 0,0 km/h (0 Bft) S-SO 157 2,8 C 22,8 C 0,0 km/h (0 Bft)
22.10.2014 00:10 4,0 C 91 % 1015,3 hPa 0,0 l/m 0,0 km/h (0 Bft) S-SO 157 2,7 C 22,8 C 0,0 km/h (0 Bft)
22.10.2014 00:20 4,0 C 90 % 1015,3 hPa 0,0 l/m 0,0 km/h (0 Bft) S-SO 157 2,5 C 22,8 C 0,0 km/h (0 Bft)
22.10.2014 00:30 4,0 C 89 % 1015,7 hPa 0,0 l/m 0,0 km/h (0 Bft) S-SO 157 2,4 C 22,8 C 0,0 km/h (0 Bft)
22.10.2014 00:40 4,0 C 88 % 1015,7 hPa 0,0 l/m 0,0 km/h (0 Bft) S-SO 157 2,2 C 22,8 C 0,0 km/h (0 Bft)
22.10.2014 00:50 3,6 C 89 % 1016,5 hPa 0,0 l/m 0,0 km/h (0 Bft) S-SO 157 2,0 C 22,8 C 0,0 km/h (0 Bft)
22.10.2014 01:00 3,5 C 90 % 1016,5 hPa 0,0 l/m 0,0 km/h (0 Bft) S-SO 157 2,0 C 22,8 C 0,0 km/h (0 Bft)
22.10.2014 01:10 3,4 C 90 % 1016,6 hPa 0,0 l/m 0,0 km/h (0 Bft) S-SO 157 1,9 C 22,8 C 0,0 km/h (0 Bft)
22.10.2014 01:20 3,3 C 91 % 1016,6 hPa 0,0 l/m 0,0 km/h (0 Bft) S-SO 157 2,0 C 22,8 C 0,0 km/h (0 Bft)
22.10.2014 01:30 3,4 C 90 % 1016,6 hPa 0,0 l/m 0,0 km/h (0 Bft) S-SO 157 1,9 C 22,8 C 0,0 km/h (0 Bft)
22.10.2014 01:40 3,4 C 90 % 1016,6 hPa 0,0 l/m 0,0 km/h (0 Bft) S-SO 157 1,9 C 22,8 C 0,0 km/h (0 Bft)
22.10.2014 01:50 3,5 C 89 % 1016,5 hPa 0,0 l/m 0,0 km/h (0 Bft) S-SO 157 1,9 C 22,8 C 0,0 km/h (0 Bft)
22.10.2014 02:00 3,5 C 89 % 1016,5 hPa 0,0 l/m 0,0 km/h (0 Bft) S-SO 157 1,9 C 22,8 C 0,0 km/h (0 Bft)
22.10.2014 02:10 3,7 C 89 % 1016,6 hPa 0,0 l/m 0,0 km/h (0 Bft) S-SO 157 2,1 C 22,8 C 0,0 km/h (0 Bft)
22.10.2014 02:20 3,5 C 88 % 1016,6 hPa 0,0 l/m 0,0 km/h (0 Bft) S-SO 157 1,7 C 22,8 C 0,0 km/h (0 Bft)
22.10.2014 02:30 3,6 C 89 % 1016,3 hPa 0,0 l/m 0,0 km/h (0 Bft) S-SO 157 2,0 C 22,8 C 0,0 km/h (0 Bft)
22.10.2014 02:38 3,6 C 88 % 1016,3 hPa 0,0 l/m 0,0 km/h (0 Bft) S-SO 157 1,8 C 22,8 C 0,0 km/h (0 Bft)
22.10.2014 02:40 3,6 C 88 % 1016,3 hPa 0,0 l/m 0,0 km/h (0 Bft) S-SO 157 1,8 C 22,8 C 0,0 km/h (0 Bft)
22.10.2014 02:50 3,5 C 89 % 1016,2 hPa 0,0 l/m 0,0 km/h (0 Bft) S-SO 157 1,9 C 22,8 C 0,0 km/h (0 Bft)
22.10.2014 03:00 3,8 C 89 % 1016,2 hPa 0,0 l/m 0,0 km/h (0 Bft) S-SO 157 2,2 C 22,8 C 0,0 km/h (0 Bft)
22.10.2014 03:10 3,4 C 89 % 1016,1 hPa 0,0 l/m 0,0 km/h (0 Bft) S-SO 157 1,8 C 22,8 C 0,0 km/h (0 Bft)
22.10.2014 03:20 3,0 C 90 % 1016,1 hPa 0,0 l/m 0,0 km/h (0 Bft) S-SO 157 1,5 C 22,8 C 0,0 km/h (0 Bft)
22.10.2014 03:30 3,1 C 90 % 1015,4 hPa 0,0 l/m 0,0 km/h (0 Bft) S-SO 157 1,6 C 22,8 C 0,0 km/h (0 Bft)
22.10.2014 03:40 3,2 C 90 % 1015,4 hPa 0,0 l/m 0,0 km/h (0 Bft) S-SO 157 1,7 C 22,8 C 0,0 km/h (0 Bft)
22.10.2014 03:50 3,8 C 90 % 1015,4 hPa 0,0 l/m 0,0 km/h (0 Bft) S-SO 157 2,3 C 22,8 C 0,0 km/h (0 Bft)
22.10.2014 04:00 4,0 C 88 % 1015,4 hPa 0,0 l/m 0,0 km/h (0 Bft) S-SO 157 2,2 C 22,8 C 0,0 km/h (0 Bft)
22.10.2014 04:10 3,9 C 88 % 1015,6 hPa 0,0 l/m 0,0 km/h (0 Bft) S-SO 157 2,1 C 22,8 C 0,0 km/h (0 Bft)
22.10.2014 04:20 3,7 C 88 % 1015,6 hPa 0,0 l/m 0,0 km/h (0 Bft) S-SO 157 1,9 C 22,8 C 0,0 km/h (0 Bft)
22.10.2014 04:30 3,2 C 88 % 1015,5 hPa 0,0 l/m 0,0 km/h (0 Bft) S-SO 157 1,4 C 22,8 C 0,0 km/h (0 Bft)
22.10.2014 04:40 3,2 C 88 % 1015,5 hPa 0,0 l/m 0,0 km/h (0 Bft) S-SO 157 1,4 C 22,8 C 0,0 km/h (0 Bft)
22.10.2014 04:50 3,3 C 89 % 1015,4 hPa 0,0 l/m 0,0 km/h (0 Bft) S-SO 157 1,7 C 22,8 C 0,0 km/h (0 Bft)
22.10.2014 05:00 3,4 C 89 % 1015,4 hPa 0,0 l/m 0,0 km/h (0 Bft) S-SO 157 1,8 C 22,8 C 0,0 km/h (0 Bft)
22.10.2014 05:10 3,5 C 88 % 1014,8 hPa 0,0 l/m 0,0 km/h (0 Bft) S-SO 157 1,7 C 22,8 C 0,0 km/h (0 Bft)
22.10.2014 05:20 3,4 C 88 % 1014,8 hPa 0,0 l/m 0,0 km/h (0 Bft) S-SO 157 1,6 C 22,8 C 0,0 km/h (0 Bft)
22.10.2014 05:30 3,2 C 88 % 1014,8 hPa 0,0 l/m 0,0 km/h (0 Bft) S-SO 157 1,4 C 22,8 C 0,0 km/h (0 Bft)
22.10.2014 05:38 3,4 C 88 % 1014,8 hPa 0,0 l/m 0,0 km/h (0 Bft) S-SO 157 1,6 C 22,8 C 0,0 km/h (0 Bft)
22.10.2014 05:40 3,4 C 88 % 1014,8 hPa 0,0 l/m 0,0 km/h (0 Bft) S-SO 157 1,6 C 22,8 C 0,0 km/h (0 Bft)
22.10.2014 05:50 3,6 C 88 % 1014,9 hPa 0,0 l/m 0,0 km/h (0 Bft) S-SO 157 1,8 C 22,8 C 0,0 km/h (0 Bft)
22.10.2014 06:00 3,6 C 87 % 1014,9 hPa 0,0 l/m 0,0 km/h (0 Bft) S-SO 157 1,6 C 22,8 C 0,0 km/h (0 Bft)
22.10.2014 06:10 3,5 C 86 % 1014,9 hPa 0,0 l/m 0,0 km/h (0 Bft) S-SO 157 1,4 C 22,8 C 0,0 km/h (0 Bft)
22.10.2014 06:20 3,5 C 86 % 1014,9 hPa 0,0 l/m 0,0 km/h (0 Bft) S-SO 157 1,4 C 22,8 C 0,0 km/h (0 Bft)
22.10.2014 06:30 3,5 C 84 % 1015,0 hPa 0,0 l/m 0,0 km/h (0 Bft) S-SO 157 1,1 C 22,8 C 0,0 km/h (0 Bft)
22.10.2014 06:40 3,5 C 83 % 1015,0 hPa 0,0 l/m 0,0 km/h (0 Bft) S-SO 157 0,9 C 22,8 C 0,0 km/h (0 Bft)
22.10.2014 06:50 3,5 C 83 % 1015,4 hPa 0,0 l/m 0,0 km/h (0 Bft) S-SO 157 0,9 C 22,8 C 0,0 km/h (0 Bft)
22.10.2014 07:00 3,5 C 83 % 1015,4 hPa 0,0 l/m 0,0 km/h (0 Bft) S-SO 157 0,9 C 22,8 C 0,0 km/h (0 Bft)
22.10.2014 07:10 3,5 C 82 % 1015,6 hPa 0,0 l/m 0,0 km/h (0 Bft) S-SO 157 0,7 C 22,8 C 0,0 km/h (0 Bft)
22.10.2014 07:20 3,3 C 82 % 1015,6 hPa 0,0 l/m 0,0 km/h (0 Bft) S-SO 157 0,5 C 22,8 C 0,0 km/h (0 Bft)
22.10.2014 07:30 3,0 C 82 % 1016,2 hPa 0,0 l/m 0,0 km/h (0 Bft) S-SO 157 0,2 C 22,8 C 0,0 km/h (0 Bft)
22.10.2014 07:40 2,1 C 83 % 1016,2 hPa 0,0 l/m 0,0 km/h (0 Bft) S-SO 157 -0,5 C 22,8 C 0,0 km/h (0 Bft)
22.10.2014 07:50 1,9 C 87 % 1016,6 hPa 0,0 l/m 0,0 km/h (0 Bft) S-SO 157 -0,0 C 22,8 C 0,0 km/h (0 Bft)
22.10.2014 08:00 1,9 C 89 % 1016,6 hPa 0,0 l/m 0,0 km/h (0 Bft) S-SO 157 0,3 C 22,8 C 0,0 km/h (0 Bft)
22.10.2014 08:10 1,9 C 88 % 1016,3 hPa 0,0 l/m 0,0 km/h (0 Bft) S-SO 157 0,1 C 22,8 C 0,0 km/h (0 Bft)
22.10.2014 08:20 1,7 C 88 % 1016,3 hPa 0,0 l/m 0,0 km/h (0 Bft) S-SO 157 -0,1 C 22,8 C 0,0 km/h (0 Bft)
22.10.2014 08:30 1,5 C 89 % 1016,9 hPa 0,0 l/m 0,0 km/h (0 Bft) S-SO 157 -0,1 C 22,8 C 0,0 km/h (0 Bft)
22.10.2014 08:38 1,7 C 90 % 1016,9 hPa 0,0 l/m 0,0 km/h (0 Bft) S-SO 157 0,2 C 22,8 C 0,0 km/h (0 Bft)
22.10.2014 08:40 1,7 C 90 % 1016,9 hPa 0,0 l/m 0,0 km/h (0 Bft) S-SO 157 0,2 C 22,8 C 0,0 km/h (0 Bft)
22.10.2014 08:50 1,9 C 89 % 1017,3 hPa 0,0 l/m 0,0 km/h (0 Bft) S-SO 157 0,3 C 22,8 C 0,0 km/h (0 Bft)
22.10.2014 09:00 1,9 C 89 % 1017,3 hPa 0,0 l/m 0,0 km/h (0 Bft) S-SO 157 0,3 C 22,8 C 0,0 km/h (0 Bft)
22.10.2014 09:10 1,9 C 89 % 1017,2 hPa 0,0 l/m 0,0 km/h (0 Bft) S-SO 157 0,3 C 22,8 C 0,0 km/h (0 Bft)
22.10.2014 09:20 2,1 C 89 % 1017,2 hPa 0,0 l/m 0,0 km/h (0 Bft) S-SO 157 0,5 C 22,8 C 0,0 km/h (0 Bft)
22.10.2014 09:30 2,2 C 89 % 1017,5 hPa 0,0 l/m 0,0 km/h (0 Bft) S-SO 157 0,6 C 22,8 C 0,0 km/h (0 Bft)
22.10.2014 09:40 2,2 C 88 % 1017,5 hPa 0,0 l/m 0,0 km/h (0 Bft) S-SO 157 0,4 C 22,8 C 0,0 km/h (0 Bft)
22.10.2014 09:50 2,3 C 87 % 1017,6 hPa 0,0 l/m 0,0 km/h (0 Bft) S-SO 157 0,4 C 22,8 C 0,0 km/h (0 Bft)
22.10.2014 10:00 1,9 C 88 % 1017,6 hPa 0,0 l/m 0,0 km/h (0 Bft) S-SO 157 0,1 C 22,8 C 0,0 km/h (0 Bft)
22.10.2014 10:10 1,7 C 89 % 1018,1 hPa 0,0 l/m 0,0 km/h (0 Bft) S-SO 157 0,1 C 22,8 C 0,0 km/h (0 Bft)
22.10.2014 10:20 1,6 C 90 % 1018,1 hPa 0,0 l/m 0,0 km/h (0 Bft) S-SO 157 0,1 C 22,8 C 0,0 km/h (0 Bft)
22.10.2014 10:30 1,4 C 91 % 1017,9 hPa 0,0 l/m 0,0 km/h (0 Bft) S-SO 157 0,1 C 22,8 C 0,0 km/h (0 Bft)
22.10.2014 10:40 1,5 C 92 % 1017,9 hPa 0,0 l/m 0,0 km/h (0 Bft) S-SO 157 0,3 C 22,8 C 0,0 km/h (0 Bft)
22.10.2014 10:50 1,7 C 93 % 1018,1 hPa 0,0 l/m 0,0 km/h (0 Bft) S-SO 157 0,7 C 22,8 C 0,0 km/h (0 Bft)
22.10.2014 11:00 1,7 C 93 % 1018,1 hPa 0,0 l/m 0,0 km/h (0 Bft) S-SO 157 0,7 C 22,8 C 0,0 km/h (0 Bft)
22.10.2014 11:10 1,7 C 93 % 1017,9 hPa 0,0 l/m 0,0 km/h (0 Bft) S-SO 157 0,7 C 22,8 C 0,0 km/h (0 Bft)
22.10.2014 11:20 1,9 C 93 % 1017,9 hPa 0,0 l/m 0,0 km/h (0 Bft) S-SO 157 0,9 C 22,8 C 0,0 km/h (0 Bft)
22.10.2014 11:30 1,8 C 93 % 1018,1 hPa 0,0 l/m 0,0 km/h (0 Bft) S-SO 157 0,8 C 22,8 C 0,0 km/h (0 Bft)
22.10.2014 11:38 2,0 C 93 % 1018,1 hPa 0,0 l/m 0,0 km/h (0 Bft) S-SO 157 1,0 C 22,8 C 0,0 km/h (0 Bft)
22.10.2014 11:40 2,0 C 93 % 1018,1 hPa 0,0 l/m 0,0 km/h (0 Bft) S-SO 157 1,0 C 22,8 C 0,0 km/h (0 Bft)
22.10.2014 11:50 2,1 C 93 % 1018,3 hPa 0,0 l/m 0,0 km/h (0 Bft) S-SO 157 1,1 C 22,8 C 0,0 km/h (0 Bft)
22.10.2014 12:00 2,4 C 93 % 1018,3 hPa 0,0 l/m 0,0 km/h (0 Bft) S-SO 157 1,4 C 22,8 C 0,0 km/h (0 Bft)
22.10.2014 12:10 2,3 C 92 % 1018,4 hPa 0,0 l/m 0,0 km/h (0 Bft) S-SO 157 1,1 C 22,8 C 0,0 km/h (0 Bft)
22.10.2014 12:20 1,9 C 93 % 1018,4 hPa 0,0 l/m 0,0 km/h (0 Bft) S-SO 157 0,9 C 22,8 C 0,0 km/h (0 Bft)
22.10.2014 12:30 2,0 C 93 % 1018,8 hPa 0,0 l/m 0,0 km/h (0 Bft) S-SO 157 1,0 C 22,8 C 0,0 km/h (0 Bft)
22.10.2014 12:40 2,2 C 93 % 1018,8 hPa 0,0 l/m 0,0 km/h (0 Bft) S-SO 157 1,2 C 22,8 C 0,0 km/h (0 Bft)
22.10.2014 12:50 2,2 C 93 % 1018,6 hPa 0,0 l/m 0,0 km/h (0 Bft) S-SO 157 1,2 C 22,8 C 0,0 km/h (0 Bft)
22.10.2014 13:00 2,2 C 93 % 1018,6 hPa 0,0 l/m 0,0 km/h (0 Bft) S-SO 157 1,2 C 22,8 C 0,0 km/h (0 Bft)
22.10.2014 13:10 2,5 C 93 % 1018,4 hPa 0,0 l/m 0,0 km/h (0 Bft) S-SO 157 1,5 C 22,8 C 0,0 km/h (0 Bft)
22.10.2014 13:20 2,5 C 93 % 1018,4 hPa 0,0 l/m 0,0 km/h (0 Bft) S-SO 157 1,5 C 22,8 C 0,0 km/h (0 Bft)
22.10.2014 13:30 2,2 C 93 % 1018,4 hPa 0,0 l/m 0,0 km/h (0 Bft) S-SO 157 1,2 C 22,8 C 0,0 km/h (0 Bft)
22.10.2014 13:40 2,5 C 92 % 1018,4 hPa 0,0 l/m 0,0 km/h (0 Bft) S-SO 157 1,3 C 22,8 C 0,0 km/h (0 Bft)
22.10.2014 13:50 2,9 C 92 % 1018,2 hPa 0,0 l/m 0,0 km/h (0 Bft) S-SO 157 1,7 C 22,8 C 0,0 km/h (0 Bft)
22.10.2014 14:00 2,5 C 91 % 1018,2 hPa 0,0 l/m 0,0 km/h (0 Bft) S-SO 157 1,2 C 22,8 C 0,0 km/h (0 Bft)
22.10.2014 14:10 2,4 C 91 % 1018,4 hPa 0,0 l/m 0,0 km/h (0 Bft) S-SO 157 1,1 C 22,8 C 0,0 km/h (0 Bft)
22.10.2014 14:20 2,4 C 91 % 1018,4 hPa 0,0 l/m 0,0 km/h (0 Bft) S-SO 157 1,1 C 22,8 C 0,0 km/h (0 Bft)
22.10.2014 14:30 2,3 C 91 % 1018,5 hPa 0,0 l/m 0,0 km/h (0 Bft) S-SO 157 1,0 C 22,8 C 0,0 km/h (0 Bft)
22.10.2014 14:38 2,4 C 91 % 1018,5 hPa 0,0 l/m 0,0 km/h (0 Bft) S-SO 157 1,1 C 22,8 C 0,0 km/h (0 Bft)
22.10.2014 14:40 2,4 C 91 % 1018,5 hPa 0,0 l/m 0,0 km/h (0 Bft) S-SO 157 1,1 C 22,8 C 0,0 km/h (0 Bft)
22.10.2014 14:50 2,3 C 91 % 1018,0 hPa 0,0 l/m 0,0 km/h (0 Bft) S-SO 157 1,0 C 22,8 C 0,0 km/h (0 Bft)
22.10.2014 15:00 2,3 C 91 % 1018,0 hPa 0,0 l/m 0,0 km/h (0 Bft) S-SO 157 1,0 C 22,8 C 0,0 km/h (0 Bft)
22.10.2014 15:10 2,1 C 91 % 1018,1 hPa 0,0 l/m 0,0 km/h (0 Bft) S-SO 157 0,8 C 22,8 C 0,0 km/h (0 Bft)
22.10.2014 15:20 1,9 C 92 % 1018,1 hPa 0,0 l/m 0,0 km/h (0 Bft) S-SO 157 0,7 C 22,8 C 0,0 km/h (0 Bft)
22.10.2014 15:30 1,8 C 92 % 1018,2 hPa 0,0 l/m 0,0 km/h (0 Bft) S-SO 157 0,6 C 22,8 C 0,0 km/h (0 Bft)
22.10.2014 15:40 1,8 C 93 % 1018,2 hPa 0,0 l/m 0,0 km/h (0 Bft) S-SO 157 0,8 C 22,8 C 0,0 km/h (0 Bft)
22.10.2014 15:50 1,8 C 93 % 1018,1 hPa 0,0 l/m 0,0 km/h (0 Bft) S-SO 157 0,8 C 22,8 C 0,0 km/h (0 Bft)
22.10.2014 16:00 1,9 C 93 % 1018,1 hPa 0,0 l/m 0,0 km/h (0 Bft) S-SO 157 0,9 C 22,8 C 0,0 km/h (0 Bft)
22.10.2014 16:10 1,8 C 93 % 1018,3 hPa 0,0 l/m 0,0 km/h (0 Bft) S-SO 157 0,8 C 22,8 C 0,0 km/h (0 Bft)
22.10.2014 16:20 1,7 C 93 % 1018,3 hPa 0,0 l/m 0,0 km/h (0 Bft) S-SO 157 0,7 C 22,8 C 0,0 km/h (0 Bft)
22.10.2014 16:30 1,6 C 94 % 1018,1 hPa 0,0 l/m 0,0 km/h (0 Bft) S-SO 157 0,7 C 22,8 C 0,0 km/h (0 Bft)
22.10.2014 16:40 1,6 C 94 % 1018,1 hPa 0,0 l/m 0,0 km/h (0 Bft) S-SO 157 0,7 C 22,8 C 0,0 km/h (0 Bft)
22.10.2014 16:50 1,5 C 94 % 1018,0 hPa 0,0 l/m 0,0 km/h (0 Bft) S-SO 157 0,6 C 22,8 C 0,0 km/h (0 Bft)
22.10.2014 17:00 1,5 C 94 % 1018,0 hPa 0,0 l/m 0,0 km/h (0 Bft) S-SO 157 0,6 C 22,8 C 0,0 km/h (0 Bft)
22.10.2014 17:10 1,6 C 95 % 1018,2 hPa 0,0 l/m 0,0 km/h (0 Bft) S-SO 157 0,9 C 22,8 C 0,0 km/h (0 Bft)
22.10.2014 17:20 1,5 C 95 % 1018,2 hPa 0,0 l/m 0,0 km/h (0 Bft) S-SO 157 0,8 C 22,8 C 0,0 km/h (0 Bft)
22.10.2014 17:30 1,4 C 95 % 1018,1 hPa 0,0 l/m 0,0 km/h (0 Bft) S-SO 157 0,7 C 22,8 C 0,0 km/h (0 Bft)
22.10.2014 17:40 1,5 C 95 % 1018,1 hPa 0,0 l/m 0,0 km/h (0 Bft) S-SO 157 0,8 C 22,8 C 0,0 km/h (0 Bft)
22.10.2014 17:50 1,3 C 95 % 1018,1 hPa 0,0 l/m 0,0 km/h (0 Bft) S-SO 157 0,6 C 22,8 C 0,0 km/h (0 Bft)
22.10.2014 18:00 1,3 C 95 % 1018,1 hPa 0,0 l/m 0,0 km/h (0 Bft) S-SO 157 0,6 C 22,8 C 0,0 km/h (0 Bft)
22.10.2014 18:10 1,3 C 95 % 1017,9 hPa 0,0 l/m 0,0 km/h (0 Bft) S-SO 157 0,6 C 22,8 C 0,0 km/h (0 Bft)
22.10.2014 18:20 1,2 C 95 % 1017,9 hPa 0,0 l/m 0,0 km/h (0 Bft) S-SO 157 0,5 C 22,8 C 0,0 km/h (0 Bft)
22.10.2014 18:30 1,1 C 95 % 1017,8 hPa 0,0 l/m 0,0 km/h (0 Bft) S-SO 157 0,4 C 22,8 C 0,0 km/h (0 Bft)
22.10.2014 18:40 1,1 C 95 % 1017,8 hPa 0,0 l/m 0,0 km/h (0 Bft) S-SO 157 0,4 C 22,8 C 0,0 km/h (0 Bft)
22.10.2014 18:50 1,1 C 96 % 1017,9 hPa 0,0 l/m 0,0 km/h (0 Bft) S-SO 157 0,5 C 22,8 C 0,0 km/h (0 Bft)
22.10.2014 19:00 1,1 C 96 % 1017,9 hPa 0,0 l/m 0,0 km/h (0 Bft) S-SO 157 0,5 C 22,8 C 0,0 km/h (0 Bft)
22.10.2014 19:10 1,1 C 96 % 1017,7 hPa 0,0 l/m 0,0 km/h (0 Bft) S-SO 157 0,5 C 22,8 C 0,0 km/h (0 Bft)
22.10.2014 19:20 1,2 C 96 % 1017,7 hPa 0,0 l/m 0,0 km/h (0 Bft) S-SO 157 0,6 C 22,8 C 0,0 km/h (0 Bft)
22.10.2014 19:30 1,2 C 96 % 1017,6 hPa 0,0 l/m 0,0 km/h (0 Bft) S-SO 157 0,6 C 22,8 C 0,0 km/h (0 Bft)
22.10.2014 19:40 1,2 C 96 % 1017,6 hPa 0,0 l/m 0,0 km/h (0 Bft) S-SO 157 0,6 C 22,8 C 0,0 km/h (0 Bft)
22.10.2014 19:50 1,2 C 96 % 1017,4 hPa 0,0 l/m 0,0 km/h (0 Bft) S-SO 157 0,6 C 22,8 C 0,0 km/h (0 Bft)
22.10.2014 20:00 1,1 C 96 % 1017,4 hPa 0,0 l/m 0,0 km/h (0 Bft) S-SO 157 0,5 C 22,8 C 0,0 km/h (0 Bft)
22.10.2014 20:10 1,0 C 96 % 1017,5 hPa 0,0 l/m 0,0 km/h (0 Bft) S-SO 157 0,4 C 22,8 C 0,0 km/h (0 Bft)
22.10.2014 20:20 1,1 C 96 % 1017,5 hPa 0,0 l/m 0,0 km/h (0 Bft) S-SO 157 0,5 C 22,8 C 0,0 km/h (0 Bft)
22.10.2014 20:28 1,2 C 96 % 1017,4 hPa 0,0 l/m 0,0 km/h (0 Bft) S-SO 157 0,6 C 22,8 C 0,0 km/h (0 Bft)
22.10.2014 20:30 1,2 C 96 % 1017,4 hPa 0,0 l/m 0,0 km/h (0 Bft) S-SO 157 0,6 C 22,8 C 0,0 km/h (0 Bft)
22.10.2014 20:40 1,1 C 96 % 1017,4 hPa 0,0 l/m 0,0 km/h (0 Bft) S-SO 157 0,5 C 22,8 C 0,0 km/h (0 Bft)
22.10.2014 20:50 1,2 C 96 % 1017,3 hPa 0,0 l/m 0,0 km/h (0 Bft) S-SO 157 0,6 C 22,8 C 0,0 km/h (0 Bft)
22.10.2014 21:00 1,2 C 96 % 1017,3 hPa 0,0 l/m 0,0 km/h (0 Bft) S-SO 157 0,6 C 22,8 C 0,0 km/h (0 Bft)
22.10.2014 21:10 1,2 C 96 % 1017,5 hPa 0,0 l/m 0,0 km/h (0 Bft) S-SO 157 0,6 C 22,8 C 0,0 km/h (0 Bft)
22.10.2014 21:20 1,3 C 96 % 1017,5 hPa 0,0 l/m 0,0 km/h (0 Bft) S-SO 157 0,7 C 22,8 C 0,0 km/h (0 Bft)
22.10.2014 21:30 1,3 C 96 % 1017,7 hPa 0,0 l/m 0,0 km/h (0 Bft) S-SO 157 0,7 C 22,8 C 0,0 km/h (0 Bft)
22.10.2014 21:40 1,3 C 96 % 1017,7 hPa 0,0 l/m 0,0 km/h (0 Bft) S-SO 157 0,7 C 22,8 C 0,0 km/h (0 Bft)
22.10.2014 21:50 1,3 C 96 % 1017,6 hPa 0,0 l/m 0,0 km/h (0 Bft) S-SO 157 0,7 C 22,8 C 0,0 km/h (0 Bft)
22.10.2014 22:00 1,2 C 96 % 1017,6 hPa 0,0 l/m 0,0 km/h (0 Bft) S-SO 157 0,6 C 22,8 C 0,0 km/h (0 Bft)
22.10.2014 22:10 1,3 C 96 % 1017,8 hPa 0,0 l/m 0,0 km/h (0 Bft) S-SO 157 0,7 C 22,8 C 0,0 km/h (0 Bft)
22.10.2014 22:20 1,3 C 96 % 1017,8 hPa 0,0 l/m 0,0 km/h (0 Bft) S-SO 157 0,7 C 22,8 C 0,0 km/h (0 Bft)
22.10.2014 22:30 1,3 C 96 % 1017,9 hPa 0,0 l/m 0,0 km/h (0 Bft) S-SO 157 0,7 C 22,8 C 0,0 km/h (0 Bft)
22.10.2014 22:40 1,2 C 96 % 1017,9 hPa 0,0 l/m 0,0 km/h (0 Bft) S-SO 157 0,6 C 22,8 C 0,0 km/h (0 Bft)
22.10.2014 22:50 1,2 C 96 % 1017,9 hPa 0,0 l/m 0,0 km/h (0 Bft) S-SO 157 0,6 C 22,8 C 0,0 km/h (0 Bft)
22.10.2014 23:00 1,1 C 96 % 1017,9 hPa 0,0 l/m 0,0 km/h (0 Bft) S-SO 157 0,5 C 22,8 C 0,0 km/h (0 Bft)
22.10.2014 23:10 1,1 C 96 % 1018,2 hPa 0,0 l/m 0,0 km/h (0 Bft) S-SO 157 0,5 C 22,8 C 0,0 km/h (0 Bft)
22.10.2014 23:20 1,0 C 96 % 1018,2 hPa 0,0 l/m 0,0 km/h (0 Bft) S-SO 157 0,4 C 22,8 C 0,0 km/h (0 Bft)
22.10.2014 23:28 0,9 C 97 % 1018,1 hPa 0,0 l/m 0,0 km/h (0 Bft) S-SO 157 0,5 C 22,8 C 0,0 km/h (0 Bft)
22.10.2014 23:30 0,9 C 97 % 1018,1 hPa 0,0 l/m 0,0 km/h (0 Bft) S-SO 157 0,5 C 22,8 C 0,0 km/h (0 Bft)
22.10.2014 23:40 0,8 C 97 % 1018,1 hPa 0,0 l/m 0,0 km/h (0 Bft) S-SO 157 0,4 C 22,8 C 0,0 km/h (0 Bft)
22.10.2014 23:50 0,8 C 97 % 1018,0 hPa 0,0 l/m 0,0 km/h (0 Bft) S-SO 157 0,4 C 22,8 C 0,0 km/h (0 Bft)
_ Min-Zeit 23:50 07:30 05:40 - 23:50 - - 07:40 23:50 23:50
Minimum _ 0,8 C 82 % 1014,8 hPa - 0,0 km/h (0 Bft) - - -0,5 C 22,8 C 0,0 km/h (0 Bft)
_ Max-Zeit 00:00 23:50 12:40 23:50 23:50 - - 00:00 23:50 23:50
Maximum _ 4,1 C 97 % 1018,8 hPa 0,0 l/m 0,0 km/h
S-SO (0 Bft)
- - 2,8 C 22,8 C 0,0 km/h
S-SO (0 Bft)
Durchschnitt _ 2,2 C 91 % 1017,2 hPa #0,0 l/m 0,0 km/h (0 Bft) - - - 1,0 C 22,8 C 0,0 km/h (0 Bft)